[[{"header":{"parameterUnit":"m.s-1","parameterCategory":1,"la1":30.2991,"la2":30.254,"lo1":-89.0895,"lo2":-89.0444,"dy":0.0017,"dx":0.0017,"nx":28,"ny":28,"refTime":"2024-03-22T21:00:00:Z","depth":0,"parameterNumber":2,"parameterNumberName":"U-component_of_WINDS"},"data":[0,0,0,0,0,0,0,0,0,0,0,0,0,0,0,0,0,0,0,0,0,0,0,0,0,0,0,0,0,0,0,0,0,0,0,0,0,0,0,0,0,0,0,0,0,0,0,0,0,0,0,0,0,0,0,0,0,0,0.0292,0.0292,0,0.029,0.029,0.029,0.028,0.028,0.028,0.0279,0.0278,0.0278,0.0278,0,0,0,0,0,0,0,0,0,0,0,0,0,0.0289,0.0289,0.0292,0.0292,0.0292,0.029,0.029,0.029,0.028,0.028,0.028,0.0279,0.0278,0.0278,0.0278,0,0,0,0,0,0,0,0,0,0,0,0,0,0.0289,0.0289,0.0292,0.0287,0.0286,0.029,0.029,0.029,0.028,0.028,0.028,0.0279,0.0278,0.0278,0.0278,0.0286,0,0,0.0279,0.0279,0,0,0,0,0,0,0,0,0.0289,0.0289,0.0287,0.0287,0.0286,0.0285,0.0288,0.0288,0.028,0.0283,0.0279,0.0279,0.028,0.028,0.0281,0.0286,0.0286,0.0279,0.0279,0.0279,0.0279,0,0,0,0,0,0,0,0.0289,0.0289,0.0291,0.0287,0.0287,0.0285,0.0285,0.0288,0.0283,0.0282,0.0282,0.0281,0.028,0.028,0.0281,0.0286,0.0279,0.0279,0.0279,0.0279,0.0301,0.0301,0,0,0,0,0,0,0.029,0.0289,0.0291,0.0291,0.0287,0.0286,0.0285,0.0286,0.0283,0.0283,0.0282,0.0281,0.028,0.028,0.028,0.0291,0.0279,0.0279,0.0279,0.03,0.0301,0.0301,0,0,0,0,0,0,0.029,0.029,0.0291,0.029,0.029,0.0286,0.0287,0.0286,0.0286,0.0283,0.0282,0.0283,0.028,0.028,0.0285,0.0291,0.0279,0.028,0.03,0.0301,0.0301,0.0312,0,0,0,0,0,0,0.029,0.029,0.0292,0.029,0.029,0.0295,0.0287,0.0286,0.0287,0.0286,0.0284,0.0283,0.028,0.0285,0.0286,0.0291,0.028,0.0299,0.03,0.0301,0.0312,0.0313,0.0315,0,0,0,0,0,0.029,0.0295,0.0293,0.0293,0.0293,0.0296,0.0296,0.0291,0.0287,0.029,0.0288,0.0283,0.0291,0.0286,0.0286,0.0292,0.0299,0.03,0.0301,0.0311,0.0313,0.0315,0,0,0,0,0,0,0.0298,0.0295,0.0292,0.0296,0.0297,0.0294,0.0297,0.0294,0.0295,0.0294,0.0289,0.0289,0.0295,0.0294,0.0289,0.0301,0.0294,0.0295,0.0301,0.0304,0.0305,0.0305,0.028,0,0,0,0,0,0.03,0.0302,0.03,0.0304,0.0304,0.0301,0.0302,0.0299,0.0299,0.0299,0.0297,0.0298,0.03,0.0302,0.0304,0.0312,0.0312,0.0316,0.0318,0.0319,0.032,0.0326,0.0329,0.0305,0.0305,0.0304,0,0,0.0305,0.0304,0.0305,0.0306,0.0305,0.0309,0.0301,0.0304,0.0307,0.0299,0.0304,0.0304,0.0304,0.0311,0.0314,0.031,0.0327,0.032,0.0322,0.0322,0.0328,0.033,0.0332,0.0305,0.0305,0.0305,0,0,0.0316,0.0314,0.0319,0.0319,0.0319,0.0317,0.0318,0.0317,0.0316,0.0322,0.0317,0.032,0.0324,0.0325,0.0326,0.034,0.0336,0.0341,0.035,0.0356,0.0358,0.0359,0.0366,0.0368,0.0342,0.0342,0.0342,0,0.0321,0.0325,0.0322,0.0326,0.0327,0.0321,0.0327,0.0327,0.0328,0.0329,0.0325,0.0332,0.0331,0.0339,0.0343,0.0344,0.0346,0.0341,0.0358,0.0359,0.0361,0.0367,0.0369,0.0343,0.0342,0.0342,0.0342,0,0.0334,0.0337,0.0341,0.0342,0.0344,0.0349,0.0346,0.0349,0.0346,0.0345,0.0352,0.0352,0.0355,0.0356,0.0354,0.0365,0.0363,0.0358,0.0351,0.0364,0.037,0.0372,0.0344,0.0343,0.0343,0.0343,0,0,0.0347,0.0348,0.035,0.0352,0.0352,0.0355,0.036,0.0364,0.0366,0.0368,0.0373,0.0378,0.0374,0.0376,0.0373,0.0379,0.0392,0.0374,0.0374,0.0378,0.0406,0.041,0.0413,0.0389,0.039,0.039,0.0407,0,0.0358,0.0367,0.0365,0.0374,0.0378,0.0374,0.0379,0.038,0.038,0.0384,0.0384,0.0388,0.0383,0.0384,0.0389,0.0389,0.0397,0.0388,0.0395,0.0395,0.0395,0.0415,0.0419,0.0434,0.0409,0.0409,0.0409,0,0.0371,0.0374,0.0384,0.0386,0.0388,0.0392,0.0396,0.04,0.0402,0.0402,0.0405,0.0402,0.0409,0.0402,0.0412,0.0406,0.0409,0.041,0.041,0.0411,0.0403,0.0417,0.0439,0.0442,0.0412,0.0412,0.0412,0,0.0382,0.0388,0.0395,0.0396,0.0399,0.0403,0.0404,0.0406,0.0409,0.0413,0.0415,0.0419,0.0422,0.0426,0.0425,0.042,0.0436,0.0429,0.0437,0.0437,0.0441,0.044,0.0464,0.0442,0.0442,0.0442,0.0442,0,0.0394,0.04,0.04,0.0404,0.0412,0.0411,0.0418,0.0419,0.0422,0.0427,0.0424,0.043,0.0428,0.0434,0.0433,0.0443,0.0444,0.0445,0.0445,0.0445,0.0445,0.0447,0.0446,0.0442,0.0442,0.0442,0.0442,0,0.0406,0.0406,0.0414,0.0417,0.0418,0.0423,0.0426,0.0431,0.0431,0.0438,0.044,0.0441,0.0448,0.0448,0.0455,0.0455,0.0467,0.0465,0.0466,0.0466,0.0475,0.0474,0.0501,0.0505,0.048,0.048,0.048,0,0.0414,0.0419,0.0423,0.0427,0.0428,0.0434,0.0437,0.0437,0.0441,0.0446,0.045,0.0457,0.0462,0.0474,0.0475,0.0482,0.0481,0.049,0.0482,0.0483,0.0482,0.0482,0.0483,0.0491,0.0491,0.0492,0.0492,0,0.0429,0.0429,0.0434,0.044,0.0444,0.0448,0.0452,0.0456,0.0456,0.0461,0.0468,0.0472,0.0481,0.0488,0.0495,0.0497,0.0495,0.0495,0.0497,0.0498,0.0499,0.05,0.0471,0.0494,0.0494,0.0493,0.0493,0.0493,0.0439,0.0445,0.0449,0.0455,0.0458,0.0463,0.0468,0.047,0.0476,0.0484,0.0483,0.0492,0.0497,0.0506,0.0509,0.0516,0.0513,0.0516,0.0517,0.0518,0.052,0.0497,0.0517,0.0517,0.0517,0.0517,0.0517,0,0.0454,0.0458,0.0463,0.047,0.0476,0.0474,0.0479,0.0484,0.0491,0.0496,0.0502,0.0512,0.052,0.0523,0.0531,0.0537,0.0536,0.0539,0.0538,0.054,0.0522,0.0519,0.0539,0.0539,0.0539,0.0539,0.0539,0.0539,0.0463,0.0472,0.0473,0.0485,0.0488,0.0497,0.05,0.0505,0.0509,0.052,0.0527,0.053,0.0535,0.0543,0.0551,0.0552,0.0555,0.0559,0.056,0.0543,0.054,0.0538,0.0536,0.0559,0.0559,0.0577,0.0577,0.0577]},{"header":{"parameterUnit":"m.s-1","parameterCategory":1,"la1":30.2991,"la2":30.254,"lo1":-89.0895,"lo2":-89.0444,"dy":0.0017,"dx":0.0017,"nx":28,"ny":28,"refTime":"2024-03-22T21:00:00:Z","depth":0,"parameterNumber":3,"parameterNumberName":"V-component_of_WINDS"},"data":[0,0,0,0,0,0,0,0,0,0,0,0,0,0,0,0,0,0,0,0,0,0,0,0,0,0,0,0,0,0,0,0,0,0,0,0,0,0,0,0,0,0,0,0,0,0,0,0,0,0,0,0,0,0,0,0,0,0,-7.5328,-7.5328,0,-7.5333,-7.5333,-7.5333,-7.5288,-7.5287,-7.5286,-7.5285,-7.5286,-7.5287,-7.5289,0,0,0,0,0,0,0,0,0,0,0,0,0,-7.5281,-7.5282,-7.5328,-7.5328,-7.5329,-7.5333,-7.5333,-7.5333,-7.5289,-7.5287,-7.5286,-7.5284,-7.5286,-7.5287,-7.5289,0,0,0,0,0,0,0,0,0,0,0,0,0,-7.5295,-7.5282,-7.5328,-7.5307,-7.5305,-7.5333,-7.5333,-7.5333,-7.5289,-7.5287,-7.5285,-7.5283,-7.5285,-7.5287,-7.5289,-7.5336,0,0,-7.5294,-7.5295,0,0,0,0,0,0,0,0,-7.5294,-7.5297,-7.531,-7.5309,-7.5306,-7.5308,-7.5316,-7.5334,-7.5289,-7.5295,-7.5285,-7.5283,-7.5295,-7.5296,-7.53,-7.5336,-7.5336,-7.5294,-7.5296,-7.5296,-7.5297,0,0,0,0,0,0,0,-7.5293,-7.5296,-7.533,-7.531,-7.5308,-7.5297,-7.5297,-7.532,-7.5305,-7.5294,-7.5291,-7.5292,-7.5293,-7.5299,-7.53,-7.5336,-7.5294,-7.5296,-7.5297,-7.5298,-7.5414,-7.5416,0,0,0,0,0,0,-7.5295,-7.5296,-7.533,-7.533,-7.5296,-7.5299,-7.5299,-7.5309,-7.5305,-7.5302,-7.5294,-7.529,-7.5297,-7.5298,-7.53,-7.5357,-7.5296,-7.5298,-7.5299,-7.5412,-7.5415,-7.5417,0,0,0,0,0,0,-7.5295,-7.5299,-7.533,-7.5312,-7.5315,-7.5302,-7.5314,-7.531,-7.5316,-7.5304,-7.5301,-7.5302,-7.5295,-7.5298,-7.5328,-7.5356,-7.5299,-7.53,-7.541,-7.5413,-7.5416,-7.547,0,0,0,0,0,0,-7.5293,-7.5299,-7.5317,-7.5313,-7.5316,-7.5358,-7.5315,-7.5312,-7.5319,-7.5315,-7.5311,-7.5309,-7.5294,-7.5326,-7.533,-7.5358,-7.5302,-7.5407,-7.5411,-7.5415,-7.5466,-7.5475,-7.5482,0,0,0,0,0,-7.5292,-7.533,-7.5318,-7.5322,-7.5338,-7.536,-7.5362,-7.5345,-7.5322,-7.534,-7.5333,-7.5309,-7.5353,-7.533,-7.5334,-7.5362,-7.5405,-7.541,-7.5415,-7.5462,-7.5473,-7.5482,0,0,0,0,0,0,-7.5336,-7.5329,-7.5315,-7.5354,-7.5358,-7.5352,-7.5374,-7.5356,-7.5366,-7.5361,-7.5339,-7.5338,-7.5373,-7.5371,-7.5345,-7.5409,-7.5375,-7.5381,-7.541,-7.542,-7.5428,-7.5428,-7.5303,0,0,0,0,0,-7.535,-7.5369,-7.5362,-7.5397,-7.54,-7.5387,-7.5396,-7.5383,-7.5386,-7.5387,-7.5382,-7.5385,-7.54,-7.5409,-7.5422,-7.5465,-7.5465,-7.5487,-7.5496,-7.5502,-7.5507,-7.5532,-7.5543,-7.5432,-7.5432,-7.5432,0,0,-7.538,-7.5379,-7.5391,-7.5406,-7.5408,-7.5428,-7.5389,-7.5411,-7.5425,-7.539,-7.5419,-7.5416,-7.5418,-7.5456,-7.5473,-7.5455,-7.5538,-7.5508,-7.5514,-7.5515,-7.5538,-7.5548,-7.5558,-7.5435,-7.5434,-7.5434,0,0,-7.5444,-7.5445,-7.5475,-7.5478,-7.5482,-7.5474,-7.5482,-7.5479,-7.5477,-7.5506,-7.5481,-7.5498,-7.5523,-7.5526,-7.5531,-7.5601,-7.558,-7.5605,-7.5648,-7.5672,-7.5681,-7.5689,-7.5715,-7.5724,-7.561,-7.5611,-7.5611,0,-7.5479,-7.5509,-7.5492,-7.5517,-7.5525,-7.5496,-7.5527,-7.5531,-7.5538,-7.5544,-7.5525,-7.5558,-7.5557,-7.5596,-7.5614,-7.5618,-7.5626,-7.5605,-7.5682,-7.5689,-7.5696,-7.572,-7.573,-7.5614,-7.5613,-7.5613,-7.5613,0,-7.5554,-7.5575,-7.5599,-7.561,-7.562,-7.5648,-7.5635,-7.5648,-7.5635,-7.5629,-7.566,-7.5659,-7.5672,-7.568,-7.5666,-7.5719,-7.5708,-7.5685,-7.565,-7.571,-7.5733,-7.5742,-7.5618,-7.5617,-7.5616,-7.5615,0,0,-7.5643,-7.5647,-7.5656,-7.5662,-7.5666,-7.5681,-7.5709,-7.5723,-7.5735,-7.5742,-7.5764,-7.5788,-7.5768,-7.5774,-7.5761,-7.5782,-7.5839,-7.5757,-7.5757,-7.5773,-7.5898,-7.5915,-7.5927,-7.5826,-7.5827,-7.5829,-7.5898,0,-7.5707,-7.5755,-7.5742,-7.5789,-7.581,-7.5784,-7.5808,-7.5813,-7.5809,-7.5825,-7.582,-7.5838,-7.5809,-7.5813,-7.5833,-7.5828,-7.5864,-7.5823,-7.5847,-7.5848,-7.5847,-7.5938,-7.5956,-7.6021,-7.5907,-7.5908,-7.591,0,-7.5787,-7.58,-7.585,-7.5853,-7.5861,-7.5883,-7.5897,-7.5913,-7.5919,-7.5914,-7.5923,-7.5906,-7.5933,-7.5899,-7.5936,-7.5908,-7.5918,-7.5917,-7.5919,-7.592,-7.5882,-7.5943,-7.6042,-7.6052,-7.5923,-7.5922,-7.5921,0,-7.5849,-7.5878,-7.5913,-7.5918,-7.5923,-7.5939,-7.5941,-7.5946,-7.5956,-7.5968,-7.5975,-7.5989,-7.5997,-7.6008,-7.5996,-7.5972,-7.6036,-7.6,-7.6033,-7.6033,-7.6047,-7.6046,-7.615,-7.6053,-7.6052,-7.6052,-7.6052,0,-7.5921,-7.5953,-7.5941,-7.5963,-7.5998,-7.5984,-7.6019,-7.6018,-7.6023,-7.6044,-7.6022,-7.6042,-7.6024,-7.6042,-7.6033,-7.6066,-7.6069,-7.6067,-7.6064,-7.6069,-7.607,-7.6075,-7.607,-7.6055,-7.6054,-7.6054,-7.6053,0,-7.5996,-7.5989,-7.6025,-7.6028,-7.603,-7.6056,-7.6058,-7.6078,-7.6073,-7.61,-7.6105,-7.6098,-7.6118,-7.6108,-7.6128,-7.6122,-7.6166,-7.6156,-7.6164,-7.6162,-7.6196,-7.6194,-7.6307,-7.6321,-7.6214,-7.6215,-7.6216,0,-7.6042,-7.6067,-7.6074,-7.6087,-7.6092,-7.6113,-7.6125,-7.6112,-7.6125,-7.6135,-7.6154,-7.6173,-7.6188,-7.6222,-7.6218,-7.6235,-7.6226,-7.6264,-7.6228,-7.6233,-7.6227,-7.6226,-7.6229,-7.6271,-7.6273,-7.6274,-7.6275,0,-7.6127,-7.6123,-7.6141,-7.616,-7.6175,-7.6188,-7.6199,-7.6211,-7.6199,-7.6214,-7.6237,-7.6248,-7.6271,-7.6291,-7.6306,-7.6307,-7.629,-7.6286,-7.6295,-7.6301,-7.6305,-7.6304,-7.6185,-7.6284,-7.6283,-7.6282,-7.6282,-7.6281,-7.6189,-7.6211,-7.622,-7.6242,-7.625,-7.6262,-7.6281,-7.6281,-7.6299,-7.6318,-7.631,-7.6336,-7.6343,-7.6361,-7.6366,-7.6386,-7.637,-7.6383,-7.6386,-7.6389,-7.6395,-7.6302,-7.6388,-7.6388,-7.6388,-7.6388,-7.6387,0,-7.6273,-7.6279,-7.6299,-7.6317,-7.6335,-7.6319,-7.6331,-7.6346,-7.637,-7.6379,-7.6396,-7.6422,-7.6442,-7.6441,-7.6459,-7.6475,-7.6468,-7.6481,-7.6479,-7.6481,-7.6407,-7.6398,-7.6487,-7.6487,-7.6487,-7.6487,-7.6487,-7.6487,-7.6319,-7.6356,-7.6354,-7.6395,-7.64,-7.6427,-7.6436,-7.6447,-7.6454,-7.6486,-7.6503,-7.6503,-7.6508,-7.6527,-7.6545,-7.6544,-7.6552,-7.6568,-7.6564,-7.6495,-7.6485,-7.6476,-7.6468,-7.657,-7.657,-7.6636,-7.6637,-7.6637]}]]